[[{"header":{"parameterUnit":"m.s-1","parameterCategory":1,"la1":30.2992,"la2":30.254,"lo1":-89.0895,"lo2":-89.0443,"dy":0.0025,"dx":0.0025,"nx":19,"ny":19,"refTime":"2026-04-27T21:00:00:Z","depth":0,"parameterNumber":2,"parameterNumberName":"U-component_of_WINDS"},"data":[0,0,0,2.1069,2.1069,2.1092,2.1092,2.1128,2.1128,0,0,0,0,0,0,0,0,0,0,0,2.1067,2.1068,2.1069,2.1069,2.1092,2.1092,2.1128,2.1128,0,0,0,0,0,0,0,0,0,0,0,2.1067,2.1068,2.1068,2.1069,2.1092,2.1092,2.1128,2.1108,0,0,0,0,0,0,0,0,0,0,2.1085,2.1089,2.1067,2.1068,2.107,2.1092,2.1092,2.1107,2.1109,2.1121,0,2.1134,0,2.1132,2.1131,2.1132,0,0,0,2.1065,2.1087,2.1088,2.1068,2.107,2.1092,2.1081,2.1108,2.1111,2.1124,2.1134,2.1135,2.1132,2.1132,2.1132,2.1214,2.1215,0,0,2.1064,2.1074,2.1087,2.109,2.1088,2.108,2.1081,2.111,2.1121,2.1134,2.1136,2.1133,2.1132,2.1132,2.1214,2.1214,0,0,0,2.1063,2.1073,2.1074,2.1089,2.1093,2.1081,2.1082,2.112,2.1119,2.1136,2.1133,2.1132,2.1133,2.1213,2.1214,2.1251,0,0,0,2.1062,2.1073,2.1073,2.108,2.1092,2.1107,2.1092,2.1117,2.112,2.1133,2.1132,2.1133,2.1212,2.1213,2.1248,2.1266,0,0,0,2.1064,2.1073,2.1078,2.108,2.109,2.1106,2.1107,2.1117,2.1118,2.1132,2.1133,2.1212,2.1213,2.1246,2.1263,2.1289,0,0,0,2.1069,2.1112,2.1079,2.1126,2.109,2.1129,2.1106,2.1135,2.1151,2.1133,2.1212,2.1214,2.1246,2.1261,2.1287,2.1313,2.1325,0,0,2.1129,2.1119,2.1146,2.1117,2.1164,2.1125,2.1177,2.1182,2.1175,2.1201,2.1203,2.1249,2.1263,2.1289,2.1391,2.1401,0,0,0,2.1168,2.1187,2.1198,2.1213,2.1218,2.1223,2.1219,2.1221,2.1242,2.1191,2.1266,2.1274,2.1289,2.1301,2.1309,2.132,2.122,2.122,2.122,2.1268,2.1255,2.1297,2.1286,2.1302,2.1296,2.1307,2.1308,2.1292,2.1309,2.1317,2.138,2.1394,2.14,2.1413,2.133,2.1331,2.1331,2.1331,2.1353,2.1377,2.1353,2.1385,2.1371,2.1397,2.1393,2.138,2.1403,2.1374,2.1387,2.1355,2.1411,2.1421,2.1334,2.1333,2.1333,2.1332,2.1332,2.1415,2.1424,2.1425,2.1445,2.1461,2.1449,2.1471,2.1457,2.1445,2.1458,2.1463,2.1462,2.1458,2.1461,2.1461,2.1462,2.1462,2.1462,2.1462,2.1479,2.1479,2.1499,2.1506,2.1513,2.1521,2.1515,2.1521,2.1525,2.1513,2.1513,2.1494,2.142,2.1401,2.1465,2.1465,2.1464,2.1464,2.1464,2.1568,2.1546,2.1577,2.1584,2.159,2.1606,2.1588,2.1602,2.1606,2.1616,2.1594,2.1542,2.1532,2.1525,2.1509,2.1598,2.1598,2.1598,2.1598,2.162,2.1613,2.164,2.1652,2.1662,2.1649,2.1682,2.1678,2.167,2.1671,2.1656,2.1634,2.1628,2.1621,2.1612,2.1597,2.1706,2.1706,2.1706,2.1673,2.1666,2.1698,2.1689,2.1693,2.1696,2.1726,2.174,2.1726,2.171,2.1671,2.1666,2.163,2.162,2.1602,2.1589,2.1561,0,0]},{"header":{"parameterUnit":"m.s-1","parameterCategory":1,"la1":30.2992,"la2":30.254,"lo1":-89.0895,"lo2":-89.0443,"dy":0.0025,"dx":0.0025,"nx":19,"ny":19,"refTime":"2026-04-27T21:00:00:Z","depth":0,"parameterNumber":3,"parameterNumberName":"V-component_of_WINDS"},"data":[0,0,0,4.0827,4.0833,4.1147,4.1148,4.1521,4.1524,0,0,0,0,0,0,0,0,0,0,0,4.072,4.0722,4.0826,4.0834,4.1146,4.1148,4.152,4.1524,0,0,0,0,0,0,0,0,0,0,0,4.0719,4.0721,4.0724,4.0835,4.1146,4.1148,4.1519,4.1292,0,0,0,0,0,0,0,0,0,0,4.0993,4.088,4.0721,4.0724,4.0837,4.1146,4.1148,4.1282,4.1307,4.1368,0,4.142,0,4.1478,4.1547,4.1548,0,0,0,4.0844,4.086,4.0957,4.0724,4.084,4.1145,4.1008,4.1296,4.1324,4.14,4.1425,4.144,4.1484,4.1549,4.1551,4.1871,4.1872,0,0,4.0827,4.0768,4.0938,4.0975,4.0927,4.0998,4.1018,4.1313,4.1336,4.1427,4.1449,4.149,4.1552,4.1554,4.187,4.1871,0,0,0,4.077,4.0755,4.0846,4.0959,4.1017,4.1007,4.103,4.1323,4.1358,4.1453,4.1494,4.1554,4.1558,4.1869,4.187,4.1861,0,0,0,4.0761,4.0722,4.0838,4.0805,4.1011,4.1175,4.1032,4.1337,4.1373,4.1492,4.1554,4.1561,4.1868,4.187,4.1859,4.1866,0,0,0,4.0704,4.0716,4.0756,4.0801,4.0934,4.1171,4.1223,4.1346,4.1397,4.1549,4.1562,4.1867,4.1869,4.1858,4.1864,4.1932,0,0,0,4.0626,4.0744,4.0755,4.0902,4.0931,4.1164,4.1222,4.1399,4.1528,4.1555,4.1868,4.187,4.1857,4.1862,4.193,4.1978,4.1993,0,0,4.0741,4.0756,4.0847,4.0866,4.1082,4.1121,4.1336,4.151,4.1578,4.1769,4.1778,4.186,4.1864,4.1932,4.21,4.2111,0,0,0,4.0863,4.0927,4.0998,4.1118,4.1255,4.1371,4.1519,4.1583,4.1748,4.1665,4.1906,4.191,4.1952,4.1978,4.1987,4.2026,4.188,4.188,4.188,4.0939,4.1021,4.1176,4.1296,4.1411,4.1562,4.1663,4.1775,4.1824,4.1879,4.1936,4.2028,4.2055,4.2063,4.2103,4.1969,4.1969,4.1969,4.1969,4.1113,4.1216,4.1279,4.1451,4.1536,4.1682,4.1831,4.1861,4.2007,4.1992,4.2033,4.2008,4.2073,4.2112,4.1969,4.1969,4.1969,4.1969,4.1969,4.117,4.1234,4.1311,4.1493,4.1623,4.174,4.1878,4.1951,4.202,4.2061,4.2128,4.2128,4.2136,4.2088,4.2088,4.2089,4.2089,4.2089,4.209,4.1198,4.1285,4.1394,4.1548,4.1634,4.1757,4.1909,4.1996,4.2109,4.2151,4.2152,4.2193,4.2065,4.203,4.2095,4.2094,4.2093,4.2093,4.2092,4.134,4.132,4.1486,4.1573,4.176,4.1883,4.1975,4.2144,4.2227,4.2292,4.2325,4.2219,4.2238,4.2231,4.2202,4.2308,4.2308,4.2308,4.2308,4.1387,4.1405,4.1591,4.1724,4.1863,4.1963,4.2146,4.2265,4.2384,4.2439,4.2435,4.2404,4.2394,4.2419,4.2408,4.2382,4.2531,4.2532,4.2532,4.1478,4.1513,4.1655,4.1773,4.1924,4.2051,4.2226,4.2374,4.2505,4.2542,4.2484,4.2474,4.2425,4.2405,4.2438,4.2419,4.2374,0,0]}]]